Regional Weather Roundup
Issued by NWS Sterling, VA

Home | Current Version | Previous Version | Text Only | Print | Product List | Glossary Off
Versions: 1 2 3 4 5 6 7 8 9 10 11 12 13 14 15 16 17 18 19 20 21 22 23 24 25 26 27 28

000
ASUS41 KLWX 030710
RWRLWX

REGIONAL WEATHER ROUNDUP
NATIONAL WEATHER SERVICE BALTIMORE MD/WASHINGTON DC
300 AM EDT TUE MAY 03 2016

Note: "FAIR" indicates few or no clouds below 12,000 feet
with no significant weather and/or obstructions to visibility.
 TC=TEMPERATURE CELSIUS

 * =Non NWS site. Station does not report precipitation (e.g. rain,
    snow, etc.), thunder, or fog.

DCZ001-MDZ009-015-VAZ040>042-051-053>054-030800-
WASHINGTON METRO

CITY           SKY/WX    TMP DP  RH WIND       PRES   REMARKS
WASHINGTON NAT CLOUDY    63  61  93 N6        29.82S
DULLES         CLOUDY    62  61  96 SE3       29.82F
ANDREWS AFB    FOG       63  63 100 NW3       29.80F VSB 3/4
FT BELVOIR     MOCLDY    62  61  95 NW3       29.81F
QUANTICO       CLOUDY    65  62  90 W3        29.82F
COLLEGE PARK*  CLOUDY    61  61 100 CALM      29.81F
LEESBURG*      CLOUDY    63  63 100 CALM      29.83F FOG
MANASSAS*      MOCLDY    63  63 100 CALM      29.82S
GAITHERSBURG*  CLOUDY    63  57  82 CALM      29.86S VSB 1/2

$$

MDZ006>007-011-014-030800-
BALTIMORE METRO

CITY           SKY/WX    TMP DP  RH WIND       PRES   REMARKS
BWI AIRPORT    CLOUDY    60  58  92 NE8       29.81F FOG
MD SCIENCE CTR   N/A     60  58  92 MISG      29.82F
MARTIN STATE   LGT RAIN  59  59 100 CALM      29.83F
ANNAPOLIS      FOG       61  61 100 N3        29.80F VSB 1/2
FORT MEADE*    CLOUDY    61  59  94 CALM      29.84F VSB 1

$$

MDZ012-015-019>023-030800-
MARYLAND EASTERN SHORE

CITY           SKY/WX    TMP DP  RH WIND       PRES   REMARKS
OCEAN CITY     LGT RAIN  61  60  97 E6        29.81F FOG
SALISBURY      LGT RAIN  64  63  96 NW9       29.79F FOG
CAMBRIDGE*       N/A     64  63  94 CALM      29.80F
EASTON*        LGT RAIN N/A N/A N/A CALM      29.84F

$$

MDZ017>025-030800-
SOUTHERN MARYLAND

CITY           SKY/WX    TMP DP  RH WIND       PRES   REMARKS
PATUXENT RIVER CLOUDY    65  63  93 SW5       29.81F
ST INIGOES     LGT RAIN  65  65 100 S3        29.80F
LEONARDTOWN*   CLOUDY    64  63  94 SW5       29.83F

$$

MDZ003>005-030800-
NORTH CENTRAL MARYLAND

CITY           SKY/WX    TMP DP  RH WIND       PRES   REMARKS
FREDERICK*     RAIN      61  61 100 CALM      29.84F
HAGERSTOWN APT LGT RAIN  60  58  92 W6        29.81F FOG
WESTMINSTER*   RAIN      59  52  77 E5        29.83S VSB 1

$$

MDZ501>502-030800-
WESTERN MARYLAND

CITY           SKY/WX    TMP DP  RH WIND       PRES   REMARKS
OAKLAND*       FOG       50  50 100 CALM      29.87F VSB<1/4
CUMBERLAND*    CLOUDY    61  61 100 CALM      29.87F

$$

VAZ025>031-030800-
SHENANDOAH VALLEY

CITY           SKY/WX    TMP DP  RH WIND       PRES   REMARKS
WINCHESTER*    LGT RAIN  61  61 100 CALM      29.83F
FRONT ROYAL*   CLOUDY    61  59  94 S3        29.83S
LURAY*         RAIN      61  61 100 CALM      29.83F
NEW MARKET*    CLOUDY    59  59 100 CALM      29.83F
STAUNTON*      CLOUDY   N/A N/A N/A CALM      29.85F
WAYNESBORO*    CLOUDY    59  58  97 CALM      29.85F

$$

WVZ021-048>050-054>055-030800-
EASTERN WEST VIRGINIA PANHANDLE

CITY           SKY/WX    TMP DP  RH WIND       PRES   REMARKS
MARTINSBURG    LGT RAIN  62  59  90 CALM      29.81F FOG
PETERSBURG*    CLOUDY    62  57  82 CALM      29.84F

$$

VAZ036>039-050-030800-
CENTRAL FOOTHILLS

CITY           SKY/WX    TMP DP  RH WIND       PRES   REMARKS
CHARLOTTESVILL CLOUDY    63  60  90 SE5       29.81F
CULPEPER*      LGT RAIN  63  63  99 CALM      29.83F
ORANGE*        CLOUDY    63  63 100 CALM      29.84F
GORDONSVILLE*  CLOUDY    62  62  99 SW3       29.81F
WARRENTON*     CLOUDY    64  59  84 CALM      29.82S

$$

VAZ055>057-030800-
NORTH AND CENTRAL PIEDMONT

CITY           SKY/WX    TMP DP  RH WIND       PRES   REMARKS
FREDERICKSBRG* CLOUDY    64  64 100 CALM      29.81S
STAFFORD*      CLOUDY    62  61  96 CALM      29.85F

$$

NCZ024-NYZ072-PAZ021-071-VAZ022-071-030800-
OTHER REGIONAL OBSERVATIONS

CITY           SKY/WX    TMP DP  RH WIND       PRES   REMARKS
NEW YORK CITY  RAIN      53  51  93 VRB6      29.90F FOG
PHILADELPHIA   CLOUDY    58  54  86 E10       29.84F
PITTSBURGH     CLOUDY    49  43  80 N9        29.88F
ROANOKE        CLOUDY    61  59  93 CALM      29.87F
RICHMOND       RAIN      64  63  96 SW7       29.81F
RALEIGH        LGT RAIN  67  65  93 NW3       29.88F

$$

ANZ530>537-030800-
MARINE OBSERVATIONS

STATION/POSITION TIME  TEMP    WIND        PRES
                       AIR SEA DIR/SP/G
                 (UTC) (F)     (DEG/KT/KT) (MB)
THOMAS PT LIGHT  0700   62 58  360/  2/  2 1010.5F
BALT KEY BRIDGE  0600   60      50/  7/  9 1009.7F
COVE POINT       0600   65     220/  9/ 11 1010.6S
LEWISETTA        0600   65 62  300/  2/  3 1010.0F
SOLOMONS ISLAND  0600   65 61  190/  9/ 11   N/A
PINEY POINT      0600          160/  9/ 10   N/A

$$





USA.gov is the U.S. government's official web portal to all federal, state and local government web resources and services.